CZ-2C R/B

Satellite information

Favourite Embed

Satellite Type and Status

ROCKET BODYIN ORBIT

Key statistics

Satellite CZ-2C R/B at a glance.

Uptime

461

Days in orbit

Revolutions

≈ 14.7

Per day

Orbit

LEO

Low Earth Orbit

Inclination

49.9

Latest

Satellite identification and parameters

Extended collection of information and parameters for CZ-2C R/B.

Object identification

Identified? True

Debris? False

Object name: CZ-2C R/B

International designator: 2024-023M

Object number (NORAD): 58916

Object ID (CCSDS): 58916

Country: PEOPLES REPUBLIC OF CHINA (PRC)

Current information (Y/N): Y

RCS size: LARGE

Orbital parameters

Period: 97.914 minutes

Inclination: 49.8954 deg

SMA: 7037.049 km

Apoapsis: 726.496 km

Periapsis: 591.332 km

RAAN: 149.5215 deg

Eccentricy: 0.0096037

Argument of periapsis: 170.708 deg

Mean anomaly: 189.5657 deg

Mean motion: 14.70675662 rev/day

Mean motion (dot): 0.0000056 rev/day2

B* drag term: 0.00011922 1/REarth

Two-line elements (TLE)

Creation date: May 8, 2025, 3:01 a.m.

Reference frame: TEME

Reference center: EARTH

Epoch: May 7, 2025, 9:14 a.m. UTC

TLE line 0: 0 CZ-2C R/B

TLE line 1: 1 58916U 24023M 25127.38498411 .00000560 00000-0 11922-3 0 9994

TLE line 2: 2 58916 49.8954 149.5215 0096037 170.7080 189.5657 14.70675662 67564

Live tracking on map

Real-time ground track for satellite CZ-2C R/B.

In-orbit conjunctions

A list of the most updated potential collisions computed for object CZ-2C R/B.

Target Orbit TCA Probability of collision Miss distance Type
FENGYUN 1C DEB SSO 2025-01-31 10:12:23 0.0001810627 220.0 (m) DEBRIS
CZ-6A DEB SSO 2025-01-10 09:50:14 0.0008238459 60.0 (m) DEBRIS

Associated space launch

11 LEO communications satellites for Chinese car manufacturer Geely Automotive for testing autonomous driving/inter-vehicle communication services. They also carry payloads for ocean observation.

CZ-2C R/B was lifted into orbit during the mission ‘Long March 2C | Geely Constellation Group 02’, on board a Long March 2 space rocket.

The launch took place on Feb. 2, 2024, 11:37 p.m. from Launch Complex 3 (LC-3/LA-1).

For more information about the launch, click the button.

Launch to space Long March 2C | Geely Constellation Group 02
Long March 2C | Geely Constellation Group 02

Agency: N/A

Status: Launch Successful

Launch date: Feb. 2, 2024, 11:37 p.m. UTC

Rocket: Long March 2

Launch pad: Launch Complex 3 (LC-3/LA-1)

Location: Xichang Satellite Launch Center, People's Republic of China

...

Latest news about this satellite

News about space launch
China launches 20 satellites on separate inland and sea rocket launches

A pair of Chinese rockets launched 11 mobility services satellites for an automaker and nine further, diverse satellites into orbit late Friday.


Newsletter sign-up

Weekly statistics, charts and insights to help you stay on top of the space industry.